Date,TemperatureHighF,TemperatureAvgF,TemperatureLowF,DewpointHighF,DewpointAvgF,DewpointLowF,HumidityHigh,HumidityAvg,HumidityLow,PressureMaxIn,PressureMinIn,WindSpeedMaxMPH,WindSpeedAvgMPH,GustSpeedMaxMPH,PrecipitationSumIn
2013-6-1,89.0,73.3,52.0,52.0,45.1,37.0,63,40,21,29.89,29.74,5,0,10,0.00
2013-6-2,90.0,75.1,55.0,55.0,49.2,45.0,74,43,24,29.74,29.61,5,1,13,0.00
2013-6-3,90.0,75.1,57.0,56.0,50.1,45.0,67,45,25,29.72,29.62,5,0,9,0.00
2013-6-4,86.0,71.0,57.0,57.0,53.2,48.0,77,55,35,29.82,29.70,2,0,4,0.00
2013-6-5,87.0,72.3,57.0,61.0,56.5,52.0,84,60,37,29.87,29.79,0,0,6,0.00
2013-6-6,91.0,75.0,59.0,63.0,58.2,53.0,83,59,35,29.83,29.75,3,0,8,0.00
2013-6-7,102.0,78.6,59.0,61.0,54.3,47.0,81,50,17,29.79,29.69,3,0,9,0.00
2013-6-8,103.0,84.7,65.0,63.0,57.0,52.0,66,42,24,29.70,29.60,5,0,11,0.00
2013-6-9,87.0,75.7,64.0,62.0,56.2,49.0,67,52,39,29.73,29.61,10,1,15,0.00
2013-6-10,67.0,61.4,55.0,52.0,49.2,47.0,79,64,54,29.90,29.67,9,1,12,0.00
2013-6-11,78.0,65.1,51.0,52.0,49.1,46.0,83,59,38,29.96,29.85,11,2,17,0.00
2013-6-12,78.0,66.0,52.0,51.0,44.4,33.0,82,51,20,29.90,29.84,10,1,13,0.00
2013-6-13,79.0,63.7,48.0,48.0,39.3,32.0,72,44,19,30.02,29.88,6,0,10,0.00
2013-6-14,84.0,67.7,49.0,45.0,40.0,32.0,61,39,24,29.97,29.78,6,1,9,0.00
2013-6-15,83.0,67.7,51.0,49.0,41.0,33.0,72,42,18,29.90,29.78,10,1,12,0.00
2013-6-16,85.0,69.1,53.0,49.0,41.6,38.0,64,39,20,29.99,29.89,6,1,10,0.00
2013-6-17,80.0,68.1,54.0,48.0,44.5,40.0,71,45,26,29.98,29.90,10,1,13,0.00
2013-6-18,69.0,61.5,53.0,47.0,44.2,41.0,71,54,38,29.91,29.83,12,3,17,0.00
2013-6-19,71.0,58.4,45.0,44.0,39.5,32.0,82,53,24,29.99,29.89,8,1,15,0.00
2013-6-20,76.0,56.7,45.0,43.0,38.3,35.0,74,53,28,29.97,29.91,6,1,10,0.00
2013-6-21,79.0,78.5,78.0,45.0,44.2,44.0,31,30,29,29.90,29.86,7,2,12,0.00
2013-6-22,84.0,77.2,51.0,46.0,41.3,38.0,67,29,21,29.86,29.78,6,1,10,0.00
2013-6-23,70.0,62.1,55.0,54.0,47.9,39.0,82,60,47,29.78,29.69,10,2,12,0.00
2013-6-24,59.0,55.7,54.0,54.0,51.9,50.0,91,87,82,29.91,29.72,10,2,12,0.65
2013-6-25,63.0,58.9,54.0,60.0,56.2,51.0,92,91,87,29.99,29.88,11,2,17,1.31
2013-6-26,80.0,69.0,58.0,62.0,59.6,56.0,92,74,50,30.02,29.95,9,1,13,0.01
2013-6-27,92.0,72.2,57.0,65.0,58.9,54.0,91,68,33,30.04,29.97,5,0,8,0.01
2013-6-28,96.0,78.3,59.0,62.0,55.5,48.0,86,52,21,30.00,29.86,6,1,8,0.01
2013-6-29,101.0,82.2,63.0,64.0,57.3,53.0,75,47,22,29.89,29.74,6,0,10,0.00
2013-6-30,102.0,81.3,63.0,62.0,56.5,54.0,75,47,22,29.77,29.70,4,0,8,0.00